(271482) = 2004 FE36

Discovered at Socorro on 2004-03-16 by LINEAR.

Orbit

Orbit type: Main Belt

Note: WebGL enabled browser required.

epoch2024-03-31.0
epoch JD2460400.5
perihelion date2024-12-19.33995
perihelion JD2460663.83995
argument of perihelion (°)148.05167
ascending node (°)29.14293
inclination (°)7.72408
eccentricity0.0484175
perihelion distance (AU)2.1805069
Tisserand w.r.t. Jupiter3.6
ΔV w.r.t. Earth (km/sec)9.5
semimajor axis (AU)2.2914535
mean anomaly (°)285.17374
mean daily motion (°/day)0.28414320
aphelion distance (AU)2.402
period (years)3.47
P-vector [x]-0.99646343
P-vector [y]0.01276808
P-vector [z]0.08305185
Q-vector [x]-0.05269321
Q-vector [y]-0.86484900
Q-vector [z]-0.49925909
absolute magnitude17.21
phase slope0.15
uncertainty0
referenceMPEC 2024-C107
observations used389
oppositions14
arc length (days)10308
first opposition used1995
last opposition used2024
residual rms (arc-secs)0.77
perturbers coarse indicatorM-v
perturbers precise indicator003Ek
first observation date used1995-11-20.0
last observation date used2024-02-09.0
computer nameMPCLINUX
JD of orbit computation2456731.569392
perihelion JD uncertainty (days)2.5273E-04
argument of perihelion uncertainty (°)8.4398E-05
ascending node uncertainty (°)2.9845E-05
inclination uncertainty (°)6.7879E-06
eccentricity uncertainty 7.9979E-08
perihelion distance uncertainty (AU)1.8939E-07
Minimum Orbit Intersection Distances (in AU)
for orbit epoch: 2460200.5, reference: E2024-CA7
Mercury1.76283
Venus1.46165
Earth1.18566
Mars0.53247
Jupiter2.55219
Saturn6.77724
Uranus16.2707
Neptune27.4487

Observations

403 total observations over interval: 1995 11 20.11039 – 2024 02 09.264747
These data are available for download (format description).

Date (UT) J2000 RA J2000 Dec Magn Location Ref
1995 11 20.11039 01 16 56.58 +09 31 58.8 20.9 V 691 – Steward Observatory, Kitt Peak-Spacewatch MPS 178461
1995 11 20.13154 01 16 55.80 +09 31 58.6   691 – Steward Observatory, Kitt Peak-Spacewatch MPS 178461
1995 11 20.15270 01 16 55.04 +09 31 58.3   691 – Steward Observatory, Kitt Peak-Spacewatch MPS 178461
2002 10 28.20930 02 13 42.67 +14 57 23.1 20.7   644 – Palomar Mountain/NEAT MPS 139335
2002 10 28.27371 02 13 38.21 +14 57 16.5 20.3   644 – Palomar Mountain/NEAT MPS 139335
2002 10 28.34279 02 13 33.32 +14 57 08.2 21.1   644 – Palomar Mountain/NEAT MPS 139335
2004 03 16.34831 12 45 23.94 +01 47 36.2 19.5   704 – Lincoln Laboratory ETS, New Mexico MPS 103279
2004 03 16.37143 12 45 22.52 +01 47 39.1 19.9   704 – Lincoln Laboratory ETS, New Mexico MPS 103279
2004 03 16.38283 12 45 21.80 +01 47 41.5 20.1   704 – Lincoln Laboratory ETS, New Mexico MPS 103279
2004 03 19.33889 12 42 27.78 +01 55 30.7 19.5   704 – Lincoln Laboratory ETS, New Mexico MPS 103279
2004 03 19.34958 12 42 27.15 +01 55 32.2 19.9   704 – Lincoln Laboratory ETS, New Mexico MPS 103279
2004 03 19.36081 12 42 26.38 +01 55 33.3 19.8   704 – Lincoln Laboratory ETS, New Mexico MPS 103279
2004 03 19.37178 12 42 25.70 +01 55 35.4 19.8   704 – Lincoln Laboratory ETS, New Mexico MPS 103279
2004 03 19.38263 12 42 25.08 +01 55 37.3 19.7   704 – Lincoln Laboratory ETS, New Mexico MPS 103279
2004 03 22.34536 12 39 22.96 +02 03 20.2 19.3   704 – Lincoln Laboratory ETS, New Mexico MPS 103956
2004 03 22.35619 12 39 22.23 +02 03 22.1 19.3   704 – Lincoln Laboratory ETS, New Mexico MPS 103956
2004 03 22.36694 12 39 21.55 +02 03 23.7 19.7   704 – Lincoln Laboratory ETS, New Mexico MPS 103956
2004 03 22.37800 12 39 20.77 +02 03 25.1 20.0   704 – Lincoln Laboratory ETS, New Mexico MPS 103956
2004 03 22.38900 12 39 20.09 +02 03 28.2 19.8   704 – Lincoln Laboratory ETS, New Mexico MPS 103956
2004 03 23.28324 12 38 24.28 +02 05 43.3 20.1   704 – Lincoln Laboratory ETS, New Mexico MPS 103956
2004 03 23.29646 12 38 23.39 +02 05 45.5 20.0   704 – Lincoln Laboratory ETS, New Mexico MPS 103956
2004 03 23.30803 12 38 22.56 +02 05 48.8 20.2   704 – Lincoln Laboratory ETS, New Mexico MPS 103956
2004 03 23.31914 12 38 21.89 +02 05 48.9 19.9   704 – Lincoln Laboratory ETS, New Mexico MPS 103956
2004 03 28.33165 12 33 01.49 +02 17 49.3 19.5   704 – Lincoln Laboratory ETS, New Mexico MPS 103956
2004 03 28.34214 12 33 00.72 +02 17 51.0 19.3   704 – Lincoln Laboratory ETS, New Mexico MPS 103956
2004 03 28.36250 12 32 59.23 +02 17 52.0 19.1   704 – Lincoln Laboratory ETS, New Mexico MPS 103956
2004 03 28.37269 12 32 58.73 +02 17 54.8 19.6   704 – Lincoln Laboratory ETS, New Mexico MPS 103956
2004 03 29.26814 12 32 01.19 +02 19 50.7 21.4 R 683 – Goodricke-Pigott Observatory, Tucson MPS 103956
2004 03 29.28155 12 32 00.27 +02 19 53.6 20.6 R 683 – Goodricke-Pigott Observatory, Tucson MPS 103956
2004 03 29.29491 12 31 59.52 +02 19 53.3 20.5 R 683 – Goodricke-Pigott Observatory, Tucson MPS 103956
2004 04 15.21328 12 15 05.82 +02 39 37.6 19.7 R 699 – Lowell Observatory-LONEOS MPS 105150
2004 04 15.23357 12 15 04.69 +02 39 39.1   699 – Lowell Observatory-LONEOS MPS 105150
2004 04 15.25387 12 15 03.66 +02 39 38.5   699 – Lowell Observatory-LONEOS MPS 105150
2004 04 15.27404 12 15 02.49 +02 39 37.9   699 – Lowell Observatory-LONEOS MPS 105150
2004 04 16.15474 12 14 17.85 +02 39 32.7 20.1 V 691 – Steward Observatory, Kitt Peak-Spacewatch MPS 104389
2004 04 16.18950 12 14 16.03 +02 39 32.4 20.0 V 691 – Steward Observatory, Kitt Peak-Spacewatch MPS 104389
2004 04 16.21947 12 14 14.44 +02 39 32.0 20.2 V 691 – Steward Observatory, Kitt Peak-Spacewatch MPS 104389
2004 04 19.25222 12 11 48.55 +02 38 12.2 19.8   704 – Lincoln Laboratory ETS, New Mexico MPS 105150
2004 04 19.26353 12 11 48.05 +02 38 11.3 20.1   704 – Lincoln Laboratory ETS, New Mexico MPS 105150
2004 04 19.27466 12 11 47.46 +02 38 11.3 20.1   704 – Lincoln Laboratory ETS, New Mexico MPS 105150
2004 04 19.28573 12 11 47.00 +02 38 11.6 20.3   704 – Lincoln Laboratory ETS, New Mexico MPS 105150
2004 04 28.16308 12 06 08.55 +02 25 12.9 20.6 V 691 – Steward Observatory, Kitt Peak-Spacewatch MPS 106281
2004 04 28.21576 12 06 06.81 +02 25 05.6 20.9 V 691 – Steward Observatory, Kitt Peak-Spacewatch MPS 106281
2004 04 28.28275 12 06 04.64 +02 24 57.3 21.3 V 691 – Steward Observatory, Kitt Peak-Spacewatch MPS 106281
2005 07 29.45920 23 12 41.81 -16 52 58.7 20.3   644 – Palomar Mountain/NEAT MPS 139335
2005 07 29.47212 23 12 41.44 -16 53 01.8 20.5   644 – Palomar Mountain/NEAT MPS 139335
2005 07 29.48397 23 12 41.08 -16 53 05.1 20.9   644 – Palomar Mountain/NEAT MPS 139335
2005 09 01.34565 22 44 07.35 -19 28 02.7 19.8   644 – Palomar Mountain/NEAT MPS 141087
2005 09 01.36639 22 44 06.01 -19 28 06.7 19.8   644 – Palomar Mountain/NEAT MPS 141087
2005 09 01.38932 22 44 04.49 -19 28 10.7 20.7   644 – Palomar Mountain/NEAT MPS 141087
2009 09 16.43938 03 16 00.76 +18 22 42.7 21.2 V G96 – Mt. Lemmon Survey MPS 294977
2009 09 16.44629 03 16 00.76 +18 22 44.3 21.1 V G96 – Mt. Lemmon Survey MPS 294977
2009 09 16.45329 03 16 00.80 +18 22 45.4 20.8 V G96 – Mt. Lemmon Survey MPS 294977
2009 09 16.46010 03 16 00.76 +18 22 47.3 21.1 V G96 – Mt. Lemmon Survey MPS 294977
2009 09 21.38697 03 15 57.45 +18 38 42.9 20.9 V G96 – Mt. Lemmon Survey MPS 295793
2009 09 21.39613 03 15 57.42 +18 38 44.6 21.1 V G96 – Mt. Lemmon Survey MPS 295793
2009 09 21.40521 03 15 57.34 +18 38 46.2 20.9 V G96 – Mt. Lemmon Survey MPS 295793
2009 09 21.41447 03 15 57.27 +18 38 48.1 21.0 V G96 – Mt. Lemmon Survey MPS 295793
2009 10 23.33890 02 57 00.72 +19 26 03.8 20.0 V G96 – Mt. Lemmon Survey MPS 300635
2009 10 23.34507 02 57 00.28 +19 26 03.5 19.8 V G96 – Mt. Lemmon Survey MPS 300635
2009 10 23.35135 02 56 59.92 +19 26 03.4 20.0 V G96 – Mt. Lemmon Survey MPS 300635
2009 10 23.35745 02 56 59.53 +19 26 03.4 19.9 V G96 – Mt. Lemmon Survey MPS 300635
2009 10 24.29718 02 56 00.97 +19 25 47.3   691 – Steward Observatory, Kitt Peak-Spacewatch MPS 300635
2009 10 24.31436 02 55 59.85 +19 25 47.1   691 – Steward Observatory, Kitt Peak-Spacewatch MPS 300635
2009 10 24.33155 02 55 58.74 +19 25 46.6   691 – Steward Observatory, Kitt Peak-Spacewatch MPS 300635
2009 11 08.27513 02 39 06.37 +19 10 15.4 19.8 V G96 – Mt. Lemmon Survey MPS 302148
2009 11 08.28192 02 39 05.90 +19 10 15.0 19.7 V G96 – Mt. Lemmon Survey MPS 302148
2009 11 08.28861 02 39 05.40 +19 10 14.1 19.9 V G96 – Mt. Lemmon Survey MPS 302148
2009 11 08.29525 02 39 04.93 +19 10 13.6 19.9 V G96 – Mt. Lemmon Survey MPS 302148
2009 11 19.26147 02 26 57.94 +18 50 06.8 20.1 V G96 – Mt. Lemmon Survey MPS 303259
2009 11 19.26668 02 26 57.66 +18 50 06.1 20.1 V G96 – Mt. Lemmon Survey MPS 303259
2009 11 19.27194 02 26 57.30 +18 50 05.5 20.0 V G96 – Mt. Lemmon Survey MPS 303259
2009 11 19.27719 02 26 56.97 +18 50 04.8 19.8 V G96 – Mt. Lemmon Survey MPS 303259
2009 11 19.39749 02 26 49.34 +18 49 50.3 19.9 V G96 – Mt. Lemmon Survey MPS 303259
2009 11 19.40085 02 26 49.12 +18 49 49.8 20.0 V G96 – Mt. Lemmon Survey MPS 303259
2009 11 19.40418 02 26 48.94 +18 49 49.2 19.7 V G96 – Mt. Lemmon Survey MPS 303259
2009 11 19.40754 02 26 48.69 +18 49 49.4 20.1 V G96 – Mt. Lemmon Survey MPS 303259
2009 11 20.20459 02 26 00.64 +18 48 18.4 20.3 V 291 – LPL/Spacewatch II MPS 303259
2009 11 20.20866 02 26 00.38 +18 48 17.7 20.3 V 291 – LPL/Spacewatch II MPS 303259
2009 11 20.21264 02 26 00.14 +18 48 17.4 20.3 V 291 – LPL/Spacewatch II MPS 303259
2011 03 14.42173 13 30 32.53 -04 38 12.5 20.0 V 691 – Steward Observatory, Kitt Peak-Spacewatch MPS 374791
2011 03 14.43939 13 30 31.76 -04 38 11.6 19.8 V 691 – Steward Observatory, Kitt Peak-Spacewatch MPS 374791
2011 03 14.45706 13 30 31.05 -04 38 10.8 20.1 V 691 – Steward Observatory, Kitt Peak-Spacewatch MPS 374791
2011 03 29.22972 13 17 59.53 -04 17 36.4 19.8 V 691 – Steward Observatory, Kitt Peak-Spacewatch MPS 375511
2011 03 29.24742 13 17 58.44 -04 17 34.4 19.9 V 691 – Steward Observatory, Kitt Peak-Spacewatch MPS 375511
2011 03 29.27206 13 17 56.91 -04 17 31.9 19.8 V 691 – Steward Observatory, Kitt Peak-Spacewatch MPS 375511
2011 04 02.23236 13 13 52.02 -04 10 17.2 19.8 V 691 – Steward Observatory, Kitt Peak-Spacewatch MPS 377125
